Overview Statistics Trail Chart Weather Telemetry Raw packets
 

This is the latest recevied weather packets stored in our database for station/object KY0TEQ-13. If no packets are shown the sender has not sent any weather packets the latest 10 day(s).

<< 30 31 32 33 34 35 36 >>
Time Temp. Humidity Pressure Rain* Wind** Luminosity Snow
1788482258 25° C 27% 1305.8 hPa 0 mm - 37 W/m² -
1788481955 25.56° C 27% 1306 hPa 0 mm - 41 W/m² -
1788481650 25.56° C 27% 1305.7 hPa 0 mm - 45 W/m² -
1788481347 25° C 27% 1306 hPa 0 mm - 51 W/m² -
1788481041 25.56° C 28% 1305.8 hPa 0 mm - 57 W/m² -
1788480740 25.56° C 26% 1305.8 hPa 0 mm - 103 W/m² -
1788480435 25.56° C 26% 1305.7 hPa 0 mm - 104 W/m² -
1788480130 26.11° C 26% 1306 hPa 0 mm - 124 W/m² -
1788479830 25.56° C 25% 1305.7 hPa 0 mm - 127 W/m² -
1788479526 25.56° C 26% 1306.1 hPa 0 mm - 159 W/m² -
1788479220 25.56° C 25% 1306 hPa 0 mm - 166 W/m² -
1788478916 25.56° C 25% 1306.2 hPa 0 mm - 175 W/m² -
1788478607 25.56° C 25% 1306 hPa 0 mm - 205 W/m² -
1788478302 26.11° C 24% 1305.8 hPa 0 mm - 240 W/m² -
1788477990 26.11° C 25% 1306.2 hPa 0 mm - 256 W/m² -
1788477687 26.11° C 25% 1306.1 hPa 0 mm - 269 W/m² -
1788477386 25.56° C 25% 1306.1 hPa 0 mm - 291 W/m² -
1788477086 25° C 27% 1306.2 hPa 0 mm - 322 W/m² -
1788476782 25° C 25% 1306.3 hPa 0 mm - 248 W/m² -
1788476481 26.11° C 24% 1306.3 hPa 0 mm - 343 W/m² -
1788476178 26.11° C 24% 1306.1 hPa 0 mm - 365 W/m² -
1788475874 26.11° C 24% 1306.6 hPa 0 mm - 374 W/m² -
1788475570 26.11° C 24% 1306.3 hPa 0 mm - 380 W/m² -
1788475266 26.11° C 23% 1306.6 hPa 0 mm - 407 W/m² -
1788474988 26.11° C 24% 1306.6 hPa 0 mm - 427 W/m² -

* Rain latest hour (hover to see other rain measurements)
** Current wind speed in m/s (hover to see current wind gust speed)